Location: La Trinit�
(48.1620°N, 3.4512°W)
Time: 18:40:27
(UTC+00:00)

Ariane Rocket - Pass Details

Date: 08 May 2021
Orbit: 761 x 769 km, 98.7° (Epoch: 21 June)

Event Time Altitude Azimuth Distance (km) Brightness Sun altitude
Exits shadow 21:02:29 - 189° (S) 3,221 5.9 -12.3°
Rises 21:02:31 0° 189° (S) 3,209 5.9 -12.3°
Reaches altitude 10° 21:05:00 10° 198° (SSW) 2,289 5.2 -12.6°
Maximum altitude 21:09:35 35° 263° (W) 1,228 4.4 -13.1°
Drops below altitude 10° 21:14:13 10° 329° (NNW) 2,309 6.8 -13.6°
Sets 21:16:44 0° 339° (NNW) 3,241 7.6 -13.9°
